Regional Weather Roundup
Issued by NWS

Home | Current Version | Previous Version | Graphics & Text | Print | Product List | Glossary On
Versions: 1 2 3 4 5 6 7 8 9 10 11 12 13 14 15 16 17 18 19 20 21 22 23 24 25 26 27 28 29 30 31 32 33 34 35 36 37 38 39 40 41 42 43 44 45 46 47 48 49 50
000
ASUS45 KBOU 011807
RWRCO

WEATHER ROUNDUP FOR COLORADO
NATIONAL WEATHER SERVICE DENVER/BOULDER CO
1200 PM MDT MON SEP 01 2014

NOTE: "FAIR" INDICATES FEW OR NO CLOUDS BELOW 12000 FEET WITH NO
SIGNIFICANT WEATHER AND/OR OBSTRUCTIONS TO VISIBILITY.

COZ001>005-013-030-031-011900-
...NORTHWEST COLORADO...

CITY           SKY/WX    TMP DP  RH WIND       PRES   REMARKS
CRAIG          SUNNY     69  41  36 N5        30.14F
HAYDEN         SUNNY     63  36  36 NE3       30.16S
MEEKER         SUNNY     69  34  27 SW9       30.16F
MOUNT WERNER   NOT AVBL
STEAMBOAT SPGS SUNNY     61  33  34 CALM      30.18S
WALDEN         PTSUNNY   59  30  33 W9        30.21F
$$

COZ006>008-011-011900-
...WEST CENTRAL VALLEYS...

CITY           SKY/WX    TMP DP  RH WIND       PRES   REMARKS
GRAND JUNCTION SUNNY     74  36  25 VRB3      30.07F
MONTROSE       SUNNY     76  33  21 CALM      30.14F
EAGLE          MOSUNNY   66  39  37 CALM      30.17F
RIFLE          SUNNY     71  38  29 N5        30.12F
DELTA          SUNNY     77  35  21 CALM      30.09F
NUCLA          SUNNY     75  34  22 NW5       30.17S
$$

COZ017>023-064>068-011900-
...SOUTHWEST COLORADO...

CITY           SKY/WX    TMP DP  RH WIND       PRES   REMARKS
DURANGO        SUNNY     78  32  18 W8        30.17F
CORTEZ         SUNNY     81  35  19 VRB5      30.15S
PAGOSA SPRINGS NOT AVBL
TELLURIDE      SUNNY     68  28  22 W10G22    30.34S
WOLF CREEK PAS SUNNY     52  32  46 SW17G31   30.51F
$$

COZ009-010-012-014-032>034-037-058>063-011900-
...CENTRAL COLORADO...

CITY           SKY/WX    TMP DP  RH WIND       PRES   REMARKS
ASPEN          MOSUNNY   66  33  29 N16G22    30.21F
BUENA VISTA    MOSUNNY   72  24  16 W17G36    30.19S
COPPER MTN     PTSUNNY   52  30  43 W21G31    30.45S
BERTHOUD PASS  PTSUNNY   37  37 100 W29G46    30.45S
COTTONWOOD PAS SUNNY     64  23  20 NW5G28    30.31S
GUNNISON       SUNNY     66  34  30 NE3       30.24F
KREMMLING      CLOUDY    64  30  27 W5        30.20F
LEADVILLE      MOSUNNY   58  28  32 NW14G25   30.32S
MONARCH PASS   SUNNY     48  28  46 W37G54    30.57R
SALIDA         SUNNY     76  30  18 SW24G38   30.24F
SUNLIGHT       SUNNY     55  36  47 SW5       30.42S
WILKERSON PASS NOT AVBL
$$

COZ069>075-011900-
...SAN LUIS VALLEY/SANGRE DE CRISTO MOUNTAINS...

CITY           SKY/WX    TMP DP  RH WIND       PRES   REMARKS
ALAMOSA        SUNNY     74  31  20 VRB5      30.18F
LA VETA PASS   NOT AVBL
SAGUACHE       NOT AVBL
$$

COZ035-036-038>040-011900-
...NORTHERN COLORADO FRONT RANGE...

CITY           SKY/WX    TMP DP  RH WIND       PRES   REMARKS
DENVER INTL AP MOSUNNY   71  45  39 CALM      30.05F
DMNS CITY PARK   N/A     74  46  36 SW1       30.04F
AURORA         MOSUNNY   72  39  30 VRB5      30.07F
FRONT RANGE AP NOT AVBL
ERIE MUNI ARPT SUNNY     73  41  30 S3        30.03F
BOULDER MUN AP SUNNY     72  43  35 CALM      30.04F
CENTENNIAL     MOSUNNY   70  42  36 VRB3      30.08F
BROOMFIELD     MOSUNNY   72  45  37 NE8       30.07F
FORT COLLINS   SUNNY     70  46  43 CALM      30.06S
LONGMONT       SUNNY     75  46  35 SE5       30.04F
$$

COZ041-046-047-076>085-087-088-011900-
...PIKES PEAK/PALMER DIVIDE AND SOUTHERN FOOTHILLS...

CITY           SKY/WX    TMP DP  RH WIND       PRES   REMARKS
COLO. SPRINGS  MOSUNNY   69  47  45 SE15G25   30.11F
A. F. ACADEMY  SUNNY     68  48  47 SE16      30.11F
ELLICOTT       SUNNY     70  45  40 S14G20    30.11F
FALCON         SUNNY     67  47  49 S15       30.16F
FORT CARSON    SUNNY     71  48  43 S20G26    30.07F
LIMON          SUNNY     72  42  34 SW12G20   30.09S
MONUMENT HILL  SUNNY     68  45  42 SW12      30.13F
TRINIDAD       SUNNY     75  46  35 VRB6      30.09F
$$

COZ042>045-048>051-090-091-011900-
...NORTHEAST COLORADO...

CITY           SKY/WX    TMP DP  RH WIND       PRES   REMARKS
GREELEY ARPT   SUNNY     73  46  38 SE9       30.05F
AKRON          MOSUNNY   70  48  45 SW7       30.06F
BURLINGTON     SUNNY     72  46  39 CALM      30.04F
WRAY             N/A     71  49  45 W6        30.03F
STERLING       SUNNY     72  52  49 S7        30.02F
HOLYOKE        PTSUNNY   66  55  68 NW5       30.03F
FORT MORGAN    SUNNY     71  47  42 S6        30.05F
$$

COZ086-089-092>099-011900-
...SOUTHEAST COLORADO...

CITY           SKY/WX    TMP DP  RH WIND       PRES   REMARKS
PUEBLO         SUNNY     75  47  36 S7G17     30.04F
LA JUNTA       SUNNY     76  43  30 VRB3      30.03F
LAMAR          SUNNY     78  47  33 CALM      29.99F
SPRINGFIELD      N/A     75  45  34 NE7       30.04S
$$


USA.gov is the U.S. government's official web portal to all federal, state and local government web resources and services.